Location: St. Louis
(38.6270°N, 90.1994°W)
Time: 01:43:06
(UTC-05:00)

Vanguard 1 - Visible Passes

Search period start: 28 September 2022 00:00
Search period end: 08 October 2022 00:00
Orbit: 649 x 3832 km, 34.2° (Epoch: 27 September)

Date Brightness Start Highest point End Pass type
(mag) Time Alt. Az. Time Alt. Az. Time Alt. Az.
28 Sep 10.6 20:50:47 10° W 20:56:05 30° SSW 20:56:43 29° SSW visible
29 Sep 11.2 21:12:01 10° W 21:16:19 22° SSW 21:16:19 22° SSW visible
30 Sep 10.7 19:09:02 10° W 19:17:35 53° SSW 19:22:43 10° ESE visible
30 Sep 11.8 21:33:42 10° WSW 21:35:56 14° SW 21:35:56 14° SW visible
01 Oct 10.9 19:30:09 10° W 19:38:04 44° SSW 19:42:53 11° SE visible
02 Oct 11.2 19:51:20 10° W 19:58:27 35° SSW 20:02:33 13° SSE visible
03 Oct 11.5 20:12:39 10° W 20:18:43 25° SW 20:22:15 14° SSE visible
04 Oct 11.8 20:34:19 10° W 20:38:51 18° SW 20:41:59 11° S visible
05 Oct 12.2 20:57:13 10° WSW 20:58:54 11° SW 21:00:27 10° SSW visible
06 Oct 11.7 18:50:54 10° W 19:00:31 40° SSW 19:06:14 10° SE visible
07 Oct 12.0 19:12:19 10° W 19:20:46 30° SW 19:26:06 10° SSE visible
